sat.trackr.live / text

‹ back to catalog

STARLINK-33992

NORAD 64026 · 2025-102E

PAYLOAD ACTIVE UNKNOWN

§ Identity

Operator
Country
US
Launch date
2025-05-16
Launch site
AFWTR
Launch vehicle
Mass (kg)
RCS (m²)

Purposes: comms

External: N2YO · Heavens-Above · Gunter

§ Orbital elements

Epoch: 2026-09-20T22:08:36.348288Z

Period
94.14 min
Inclination
70.0009°
Eccentricity
0.0003574
Mean motion
15.29588912 rev/d
Perigee alt
474.6 km
Apogee alt
479.5 km
Semi-major
6,855.2 km
B*
3.2622e-4
RAAN
339.9132°
Arg perigee
272.0661°
Mean anomaly
88.0105°
Rev number
7,534

§ Raw data

STARLINK-339921 64026U 25102E   26263.92264292  .00009264  00000+0  32622-3 0  99912 64026  70.0009 339.9132 0003574 272.0661  88.0105 15.29588912 75340

JSON: /api/v1/satellites/64026 · /tle

For live sub-satellite position, see the globe view (requires WebGL).

§ Visibility from observer

Set your observer location to see the next 7 days of passes ≥ 10°. The values pass through the URL so the page stays shareable.

No JS? Fill the form by hand. The geolocation button needs JavaScript.